[[{"header":{"parameterUnit":"m.s-1","parameterCategory":1,"la1":30.2991,"la2":30.254,"lo1":-89.0895,"lo2":-89.0444,"dy":0.0017,"dx":0.0017,"nx":28,"ny":28,"refTime":"2024-03-21T09:00:00:Z","depth":0,"parameterNumber":2,"parameterNumberName":"U-component_of_WINDS"},"data":[0,0,0,0,0,0,0,0,0,0,0,0,0,0,0,0,0,0,0,0,0,0,0,0,0,0,0,0,0,0,0,0,0,0,0,0,0,0,0,0,0,0,0,0,0,0,0,0,0,0,0,0,0,0,0,0,0,0,-1.5066,-1.5067,0,-1.5159,-1.516,-1.5161,-1.5274,-1.5275,-1.5277,-1.5279,-1.5365,-1.5366,-1.5366,0,0,0,0,0,0,0,0,0,0,0,0,0,-1.4981,-1.4982,-1.5066,-1.5067,-1.5069,-1.5159,-1.516,-1.5161,-1.5273,-1.5276,-1.5278,-1.528,-1.5365,-1.5365,-1.5366,0,0,0,0,0,0,0,0,0,0,0,0,0,-1.504,-1.4982,-1.5066,-1.5136,-1.5143,-1.5158,-1.516,-1.5161,-1.5273,-1.5276,-1.5278,-1.5281,-1.5365,-1.5365,-1.5366,-1.5318,0,0,-1.5369,-1.537,0,0,0,0,0,0,0,0,-1.5036,-1.5043,-1.5124,-1.5131,-1.5139,-1.5208,-1.5161,-1.5214,-1.5272,-1.5223,-1.5279,-1.5282,-1.531,-1.5315,-1.5327,-1.5322,-1.5326,-1.5369,-1.537,-1.537,-1.537,0,0,0,0,0,0,0,-1.5032,-1.5039,-1.5103,-1.5125,-1.5134,-1.516,-1.5172,-1.5172,-1.525,-1.5228,-1.5236,-1.5246,-1.5314,-1.5325,-1.5329,-1.5327,-1.5369,-1.537,-1.5371,-1.5371,-1.5287,-1.5285,0,0,0,0,0,0,-1.5018,-1.5035,-1.51,-1.5105,-1.5094,-1.516,-1.5172,-1.5183,-1.525,-1.5264,-1.5244,-1.5251,-1.5323,-1.5328,-1.5333,-1.528,-1.537,-1.5371,-1.5372,-1.529,-1.5287,-1.5284,0,0,0,0,0,0,-1.5016,-1.5023,-1.5096,-1.5073,-1.5084,-1.5158,-1.5169,-1.5183,-1.5194,-1.5263,-1.5276,-1.5241,-1.5325,-1.5332,-1.5321,-1.5284,-1.5371,-1.5372,-1.5293,-1.5289,-1.5285,-1.5173,0,0,0,0,0,0,-1.5013,-1.5022,-1.5005,-1.5072,-1.5085,-1.5084,-1.5167,-1.5183,-1.5197,-1.5207,-1.5264,-1.5275,-1.5327,-1.5319,-1.5322,-1.5287,-1.5373,-1.5297,-1.5291,-1.5287,-1.518,-1.5165,-1.5153,0,0,0,0,0,-1.501,-1.4968,-1.5004,-1.5011,-1.5066,-1.5082,-1.5089,-1.5152,-1.5193,-1.5176,-1.5221,-1.5274,-1.5289,-1.5317,-1.5322,-1.5286,-1.5299,-1.5293,-1.5287,-1.5186,-1.5168,-1.5153,0,0,0,0,0,0,-1.4891,-1.4978,-1.5018,-1.4998,-1.5032,-1.5101,-1.5081,-1.5131,-1.5153,-1.5161,-1.5236,-1.5248,-1.5228,-1.5257,-1.5287,-1.5243,-1.5302,-1.5296,-1.5224,-1.5207,-1.5194,-1.5185,-1.5374,0,0,0,0,0,-1.4864,-1.4872,-1.4946,-1.492,-1.4936,-1.5006,-1.5015,-1.5061,-1.5099,-1.5113,-1.5156,-1.5188,-1.5201,-1.5206,-1.5221,-1.5187,-1.5199,-1.5164,-1.5151,-1.5139,-1.5131,-1.5114,-1.5098,-1.5263,-1.5263,-1.5263,0,0,-1.4804,-1.4853,-1.4852,-1.4898,-1.493,-1.4934,-1.5017,-1.5018,-1.502,-1.5112,-1.5105,-1.5138,-1.5179,-1.5156,-1.5148,-1.5179,-1.509,-1.5131,-1.5121,-1.512,-1.5106,-1.509,-1.5076,-1.5259,-1.526,-1.526,0,0,-1.4698,-1.4737,-1.4719,-1.4751,-1.4801,-1.4848,-1.4844,-1.4906,-1.4933,-1.4928,-1.4997,-1.5001,-1.5021,-1.5047,-1.5062,-1.497,-1.5019,-1.4973,-1.4899,-1.4881,-1.4868,-1.4857,-1.482,-1.4807,-1.4967,-1.4966,-1.4966,0,-1.4617,-1.4628,-1.4703,-1.47,-1.4717,-1.4805,-1.4786,-1.4813,-1.4863,-1.4871,-1.4907,-1.4935,-1.4968,-1.4952,-1.493,-1.4941,-1.4936,-1.4964,-1.4865,-1.4854,-1.4844,-1.4811,-1.4797,-1.496,-1.4961,-1.4962,-1.4962,0,-1.4525,-1.4532,-1.4512,-1.4562,-1.4577,-1.4566,-1.4637,-1.4643,-1.469,-1.4732,-1.4726,-1.4771,-1.4796,-1.4797,-1.484,-1.4786,-1.4804,-1.4851,-1.4911,-1.4821,-1.4791,-1.4779,-1.4951,-1.4954,-1.4955,-1.4957,0,0,-1.4341,-1.4436,-1.4426,-1.445,-1.4513,-1.4518,-1.4512,-1.454,-1.4542,-1.4576,-1.4569,-1.4586,-1.4631,-1.4649,-1.4697,-1.4681,-1.4602,-1.4731,-1.4733,-1.4702,-1.4542,-1.4503,-1.4487,-1.4638,-1.4635,-1.4634,-1.4537,0,-1.4243,-1.4238,-1.4307,-1.4282,-1.4288,-1.4374,-1.4368,-1.4404,-1.4445,-1.4455,-1.45,-1.4509,-1.4569,-1.458,-1.457,-1.4614,-1.457,-1.4623,-1.4628,-1.4627,-1.461,-1.4471,-1.4429,-1.4336,-1.4526,-1.4524,-1.4523,0,-1.4126,-1.4156,-1.4132,-1.4198,-1.4203,-1.4196,-1.4228,-1.4238,-1.428,-1.4311,-1.4333,-1.439,-1.4385,-1.4447,-1.444,-1.4474,-1.4481,-1.4504,-1.4502,-1.45,-1.4566,-1.4462,-1.4308,-1.4292,-1.4506,-1.4507,-1.4508,0,-1.3989,-1.4024,-1.4014,-1.4033,-1.4109,-1.4102,-1.4133,-1.418,-1.4193,-1.422,-1.4229,-1.4255,-1.4267,-1.4285,-1.4346,-1.4385,-1.4331,-1.4398,-1.4353,-1.4351,-1.4333,-1.4332,-1.4173,-1.4345,-1.4345,-1.4346,-1.4346,0,-1.3869,-1.385,-1.3954,-1.3947,-1.3929,-1.4009,-1.3987,-1.4027,-1.4068,-1.4069,-1.4145,-1.4144,-1.4227,-1.4235,-1.4283,-1.4268,-1.4275,-1.4297,-1.4309,-1.4287,-1.4283,-1.4288,-1.4295,-1.4342,-1.4343,-1.4344,-1.4344,0,-1.371,-1.378,-1.3774,-1.385,-1.3868,-1.3851,-1.3914,-1.3909,-1.3958,-1.3958,-1.3962,-1.4036,-1.4049,-1.4114,-1.4141,-1.4174,-1.414,-1.4168,-1.4126,-1.4133,-1.4083,-1.4085,-1.3918,-1.3898,-1.4087,-1.4085,-1.4083,0,-1.3626,-1.3614,-1.369,-1.3698,-1.3726,-1.3738,-1.3753,-1.3832,-1.3843,-1.3893,-1.3882,-1.3903,-1.3922,-1.3938,-1.3992,-1.4013,-1.4039,-1.398,-1.4042,-1.4021,-1.4033,-1.4031,-1.4029,-1.3963,-1.3961,-1.3959,-1.3958,0,-1.3469,-1.3505,-1.3525,-1.3557,-1.3573,-1.3602,-1.3634,-1.3636,-1.3723,-1.3732,-1.3748,-1.3764,-1.3794,-1.3811,-1.3843,-1.3872,-1.3927,-1.3939,-1.3929,-1.3903,-1.3878,-1.3887,-1.4084,-1.394,-1.3942,-1.3943,-1.3944,-1.3945,-1.3342,-1.3335,-1.3388,-1.3407,-1.3442,-1.3471,-1.3471,-1.3521,-1.3537,-1.3569,-1.3616,-1.3625,-1.3669,-1.3718,-1.3743,-1.375,-1.3782,-1.3768,-1.3763,-1.3757,-1.3745,-1.3882,-1.3756,-1.3757,-1.3757,-1.3758,-1.3758,0,-1.3184,-1.3224,-1.3242,-1.3287,-1.3302,-1.3361,-1.34,-1.3407,-1.3416,-1.3455,-1.3474,-1.3492,-1.3511,-1.3568,-1.3592,-1.3586,-1.3612,-1.3589,-1.3587,-1.3592,-1.3717,-1.3722,-1.3568,-1.3568,-1.3568,-1.3568,-1.3568,-1.3568,-1.3104,-1.3096,-1.3138,-1.3147,-1.3187,-1.3199,-1.3216,-1.3243,-1.3275,-1.3293,-1.331,-1.3349,-1.3395,-1.3423,-1.3442,-1.3458,-1.3461,-1.3428,-1.3452,-1.3566,-1.3584,-1.3601,-1.3606,-1.343,-1.343,-1.3327,-1.3326,-1.3325]},{"header":{"parameterUnit":"m.s-1","parameterCategory":1,"la1":30.2991,"la2":30.254,"lo1":-89.0895,"lo2":-89.0444,"dy":0.0017,"dx":0.0017,"nx":28,"ny":28,"refTime":"2024-03-21T09:00:00:Z","depth":0,"parameterNumber":3,"parameterNumberName":"V-component_of_WINDS"},"data":[0,0,0,0,0,0,0,0,0,0,0,0,0,0,0,0,0,0,0,0,0,0,0,0,0,0,0,0,0,0,0,0,0,0,0,0,0,0,0,0,0,0,0,0,0,0,0,0,0,0,0,0,0,0,0,0,0,0,4.8591,4.8592,0,4.8656,4.8656,4.8657,4.8568,4.8565,4.8562,4.8559,4.8623,4.8627,4.8632,0,0,0,0,0,0,0,0,0,0,0,0,0,4.8391,4.8395,4.8591,4.8592,4.8593,4.8656,4.8657,4.8657,4.8569,4.8565,4.8561,4.8557,4.8621,4.8627,4.8633,0,0,0,0,0,0,0,0,0,0,0,0,0,4.8469,4.8396,4.8591,4.8556,4.8554,4.8655,4.8657,4.8658,4.857,4.8565,4.856,4.8556,4.862,4.8626,4.8633,4.8772,0,0,4.8655,4.8658,0,0,0,0,0,0,0,0,4.8464,4.8476,4.8561,4.8559,4.8556,4.8599,4.8609,4.8696,4.8571,4.8564,4.8559,4.8553,4.8619,4.8625,4.8648,4.8775,4.8777,4.8655,4.866,4.8663,4.8664,0,0,0,0,0,0,0,4.8459,4.8473,4.8617,4.8562,4.8559,4.8537,4.8543,4.8625,4.8617,4.8564,4.8557,4.8566,4.8617,4.8641,4.8649,4.8778,4.8655,4.8661,4.8666,4.8668,4.9024,4.9029,0,0,0,0,0,0,4.8458,4.8469,4.8615,4.8619,4.8498,4.8545,4.8551,4.859,4.8616,4.8615,4.857,4.8562,4.8632,4.8641,4.8651,4.8817,4.8662,4.8669,4.8673,4.9019,4.9025,4.9031,0,0,0,0,0,0,4.8454,4.8472,4.8612,4.8542,4.8558,4.8553,4.8598,4.8594,4.8619,4.8621,4.8619,4.8598,4.8628,4.8641,4.8743,4.8817,4.8672,4.8679,4.9013,4.9021,4.9028,4.9148,0,0,0,0,0,0,4.8449,4.8471,4.8524,4.8544,4.8562,4.8704,4.8602,4.8599,4.8631,4.8621,4.8646,4.8645,4.8626,4.8733,4.875,4.8824,4.8684,4.9006,4.9016,4.9026,4.9138,4.9159,4.9178,0,0,0,0,0,4.8442,4.8554,4.8527,4.8545,4.8628,4.8708,4.8719,4.8694,4.8637,4.8691,4.8692,4.8644,4.8806,4.8744,4.8762,4.884,4.9001,4.9014,4.9025,4.9129,4.9155,4.9177,0,0,0,0,0,0,4.8541,4.8556,4.8526,4.8648,4.8678,4.8693,4.8759,4.8723,4.8769,4.8757,4.8724,4.8731,4.8841,4.885,4.8781,4.8977,4.8894,4.891,4.8967,4.8992,4.9012,4.9008,4.869,0,0,0,0,0,4.8577,4.8641,4.865,4.8757,4.8774,4.8764,4.8798,4.8777,4.8806,4.8818,4.8827,4.8857,4.8915,4.8953,4.9006,4.9138,4.9143,4.9201,4.9221,4.9237,4.9252,4.9325,4.9351,4.907,4.907,4.907,0,0,4.8652,4.8668,4.871,4.8778,4.8798,4.8866,4.8775,4.885,4.89,4.8829,4.8927,4.8935,4.8966,4.9085,4.9137,4.9096,4.9331,4.9252,4.9265,4.9271,4.934,4.9366,4.939,4.9078,4.9076,4.9075,0,0,4.8824,4.8842,4.8934,4.8957,4.899,4.8983,4.9006,4.9027,4.903,4.9128,4.9078,4.9136,4.9235,4.9261,4.9286,4.947,4.9429,4.9488,4.9594,4.9665,4.9687,4.9707,4.9775,4.9799,4.9503,4.9503,4.9503,0,4.8913,4.9014,4.8986,4.9065,4.9097,4.9037,4.9131,4.9154,4.9203,4.9226,4.9179,4.9305,4.9321,4.9446,4.9491,4.9513,4.9539,4.9486,4.9686,4.9706,4.9724,4.9788,4.9814,4.951,4.9509,4.9509,4.9508,0,4.9123,4.9193,4.9263,4.9314,4.9353,4.9439,4.9425,4.9468,4.9444,4.9442,4.9544,4.9562,4.9619,4.9646,4.9622,4.9768,4.9742,4.9692,4.9608,4.9758,4.9818,4.9843,4.952,4.9518,4.9516,4.9514,0,0,4.9359,4.9394,4.9421,4.9444,4.9477,4.9531,4.9614,4.9671,4.971,4.9745,4.9816,4.9902,4.9856,4.9886,4.9864,4.9927,5.0075,4.9869,4.9869,4.9909,5.024,5.028,5.0308,5.0047,5.0051,5.0055,5.0238,0,4.9532,4.9679,4.9657,4.9798,4.9864,4.9809,4.9882,4.9911,4.9912,4.9967,4.9967,5.0031,4.9964,4.9982,5.0041,5.0044,5.0141,5.003,5.0113,5.0117,5.011,5.0339,5.0381,5.0553,5.0261,5.0265,5.0268,0,4.9755,4.9801,4.9949,4.9974,5.0001,5.0067,5.0119,5.0173,5.0204,5.02,5.0235,5.0203,5.0287,5.0202,5.0318,5.0244,5.0276,5.0283,5.0289,5.0298,5.0203,5.0357,5.0607,5.0634,5.0304,5.0301,5.0298,0,4.9915,5.0014,5.0116,5.0137,5.0168,5.0217,5.0232,5.0258,5.0295,5.0339,5.0363,5.0416,5.0446,5.0489,5.0473,5.0411,5.0594,5.0506,5.0594,5.0595,5.0637,5.0635,5.0898,5.0654,5.0653,5.0653,5.0652,0,5.0113,5.0207,5.0189,5.0252,5.0356,5.033,5.0433,5.0441,5.0466,5.053,5.0484,5.0546,5.0519,5.0579,5.0566,5.0666,5.0679,5.068,5.0676,5.0685,5.0686,5.0708,5.0696,5.066,5.0658,5.0657,5.0656,0,5.0311,5.0302,5.0411,5.0432,5.0439,5.0515,5.0533,5.0593,5.059,5.0673,5.069,5.0687,5.0755,5.0742,5.0816,5.0808,5.0935,5.0914,5.0925,5.0921,5.1011,5.1004,5.13,5.1339,5.1067,5.1069,5.1072,0,5.0438,5.0509,5.0539,5.058,5.0599,5.0664,5.0702,5.0679,5.072,5.0762,5.0817,5.0881,5.0932,5.1043,5.1047,5.1104,5.1087,5.1186,5.1095,5.1104,5.1092,5.1089,5.1097,5.1205,5.1208,5.1211,5.1213,0,5.0667,5.066,5.0717,5.0773,5.082,5.0862,5.09,5.0936,5.0916,5.0965,5.1035,5.1074,5.1151,5.1216,5.127,5.1285,5.1248,5.1242,5.1266,5.1278,5.1282,5.1284,5.0977,5.1235,5.1233,5.1232,5.123,5.1229,5.0836,5.0897,5.0929,5.0994,5.1021,5.1058,5.1116,5.1122,5.118,5.1242,5.1225,5.1305,5.1336,5.1405,5.1426,5.1488,5.1451,5.1485,5.1494,5.1504,5.1517,5.127,5.1497,5.1497,5.1496,5.1496,5.1495,0,5.1064,5.1083,5.1143,5.1199,5.1251,5.121,5.1251,5.1297,5.1369,5.1401,5.1452,5.1534,5.1597,5.1607,5.1667,5.1715,5.17,5.1732,5.173,5.1734,5.1544,5.1519,5.1744,5.1744,5.1744,5.1744,5.1744,5.1744,5.119,5.1294,5.1291,5.1408,5.1424,5.1504,5.1531,5.1565,5.1592,5.1685,5.1738,5.1744,5.1769,5.183,5.1887,5.1888,5.1914,5.1954,5.1949,5.1772,5.1747,5.1724,5.17,5.1959,5.1959,5.2134,5.2136,5.2137]}]]